Location: Bruderhein
(53.8035°N, 112.9265°W)
Time: 19:07:41
(UTC+00:00)

NANOSAT C BR1 - Visible Passes

Search period start: 28 March 2023 00:00
Search period end: 07 April 2023 00:00
Orbit: 576 x 590 km, 98.0° (Epoch: 28 March)

Date Brightness Start Highest point End Pass type
(mag) Time Alt. Az. Time Alt. Az. Time Alt. Az.
28 Mar ? 09:04:11 10° NE 09:06:28 14° E 09:06:28 14° E visible
28 Mar ? 10:38:14 10° NNE 10:42:23 79° WNW 10:42:52 67° SW visible
28 Mar ? 12:15:01 10° NNW 12:17:06 14° NW 12:19:08 10° W visible
29 Mar ? 09:09:50 10° NE 09:12:26 16° E 09:12:32 16° E visible
29 Mar ? 10:44:09 10° N 10:48:16 70° WNW 10:48:57 57° SW visible
29 Mar ? 12:21:12 10° NNW 12:22:54 12° NW 12:24:36 10° WNW visible
30 Mar ? 09:15:30 10° NE 09:18:22 18° E 09:18:36 18° E visible
30 Mar ? 10:50:02 10° N 10:54:08 62° WNW 10:55:01 48° WSW visible
30 Mar ? 12:27:27 10° NNW 12:28:41 11° NW 12:29:55 10° WNW visible
31 Mar ? 09:21:12 10° NE 09:24:17 20° E 09:24:39 20° E visible
31 Mar ? 10:55:56 10° N 10:59:58 55° WNW 11:01:03 41° WSW visible
31 Mar ? 12:34:04 10° NW 12:34:27 10° NW 12:34:50 10° NW visible
01 Apr ? 09:26:54 10° NE 09:30:10 22° E 09:30:41 22° ESE visible
01 Apr ? 11:01:48 10° N 11:05:47 49° WNW 11:07:04 35° WSW visible
02 Apr ? 09:32:36 10° NE 09:36:03 25° E 09:36:41 24° ESE visible
02 Apr ? 11:07:39 10° N 11:11:34 43° WNW 11:13:05 30° WSW visible
03 Apr ? 09:38:18 10° NE 09:41:53 28° E 09:42:40 26° ESE visible
03 Apr ? 11:13:30 10° N 11:17:20 39° WNW 11:19:04 26° WSW visible
04 Apr ? 09:44:00 10° NNE 09:47:43 31° E 09:48:38 28° ESE visible
04 Apr ? 11:19:20 10° N 11:23:05 35° WNW 11:25:02 22° WSW visible
05 Apr ? 09:49:42 10° NNE 09:53:30 35° E 09:54:35 30° SE visible
05 Apr ? 11:25:09 10° N 11:28:49 31° WNW 11:30:59 19° WSW visible
06 Apr ? 09:55:23 10° NNE 09:59:17 39° E 10:00:31 31° SE visible
06 Apr ? 11:30:58 10° N 11:34:31 28° WNW 11:36:54 16° WSW visible
